This is the latest recevied weather packets stored in our database for station/object XE1GMR. If no packets are shown the sender has not sent any weather packets the latest 1 day(s).
| Time | Temp. | Humidity | Pressure | Rain* | Wind** | Luminosity | Snow |
|---|---|---|---|---|---|---|---|
| 1778048176 | 19.44° C | 63% | 1122.6 hPa | 0 mm | - | 0 W/m² | - |
| 1778047874 | 19.44° C | 62% | 1122.4 hPa | 0 mm | - | 0 W/m² | - |
| 1778047572 | 19.44° C | 62% | 1122.5 hPa | 0 mm | - | 0 W/m² | - |
| 1778047269 | 19.44° C | 63% | 1122.7 hPa | 0 mm | - | 0 W/m² | - |
| 1778046966 | 20° C | 62% | 1122.7 hPa | 0 mm | - | 0 W/m² | - |
| 1778046055 | 20° C | 62% | 1122.8 hPa | 0 mm | - | 0 W/m² | - |
| 1778045753 | 20° C | 61% | 1122.8 hPa | 0 mm | - | 0 W/m² | - |
| 1778045452 | 20° C | 61% | 1123 hPa | 0 mm | - | 0 W/m² | - |
| 1778044847 | 20° C | 61% | 1122.6 hPa | 0 mm | - | 0 W/m² | - |
| 1778043938 | 20.56° C | 59% | 1122.6 hPa | 0 mm | - | 0 W/m² | - |
| 1778043636 | 20.56° C | 58% | 1122.4 hPa | 0 mm | - | 0 W/m² | - |
| 1778043332 | 20.56° C | 58% | 1122.7 hPa | 0 mm | - | 0 W/m² | - |
| 1778043029 | 20.56° C | 57% | 1122.4 hPa | 0 mm | - | 0 W/m² | - |
| 1778042727 | 20.56° C | 56% | 1122.6 hPa | 0 mm | - | 0 W/m² | - |
| 1778042423 | 21.11° C | 57% | 1122.5 hPa | 0 mm | - | 0 W/m² | - |
| 1778041819 | 21.11° C | 57% | 1122.4 hPa | 0 mm | - | 0 W/m² | - |
| 1778041518 | 21.11° C | 57% | 1122.4 hPa | 0 mm | - | 0 W/m² | - |
| 1778041216 | 21.11° C | 56% | 1122.2 hPa | 0 mm | - | 0 W/m² | - |
| 1778040914 | 21.67° C | 55% | 1122.2 hPa | 0 mm | - | 0 W/m² | - |
| 1778040610 | 21.67° C | 54% | 1122.2 hPa | 0 mm | - | 0 W/m² | - |
| 1778040308 | 21.67° C | 52% | 1122.2 hPa | 0 mm | - | 0 W/m² | - |
| 1778039701 | 22.78° C | 49% | 1122 hPa | 0 mm | - | 0 W/m² | - |
| 1778039397 | 23.33° C | 48% | 1122 hPa | 0 mm | - | 0 W/m² | - |
| 1778039095 | 23.89° C | 47% | 1121.8 hPa | 0 mm | - | 0 W/m² | - |
| 1778038185 | 23.89° C | 46% | 1121.7 hPa | 0 mm | - | 0 W/m² | - |
* Rain latest hour (hover to see other rain measurements)
** Current wind speed in m/s (hover to see current wind gust speed)